Weather History for Amberley Military, Queensland

Change the Weather History Date:

Monday, November 4, 2013

  Actual Average Record
Temperature  
Mean Temperature 72 °F -  
Max Temperature 82 °F - - ()
Min Temperature 62 °F - - ()
Cooling Degree Days 7    
Growing Degree Days 22 (Base 50)    
Moisture  
Dew Point 58 °F    
Average Humidity 64    
Maximum Humidity 94    
Minimum Humidity 42    
Precipitation  
Precipitation 0.00 in - - ()
Sea Level Pressure  
Sea Level Pressure 30.02 in    
Wind  
Wind Speed 8 mph ()    
Max Wind Speed 22 mph    
Max Gust Speed -    
Visibility 6.2 miles    
Events      
T = Trace of Precipitation, MM = Missing Value Source: Averaged Metar Reports

Daily Weather History Graph

Daily Weather History Graph

Search for Another Location

Airport:

Trip Planner

Search our weather history database for the weather conditions in past years. The results will help you decide how hot, cold, wet, or windy it might be!

Date:

Astronomy

Nov. 04, 2013 Rise Set
Actual Time 4:55 AM AEST 6:09 PM AEST
Civil Twilight 4:31 AM AEST 6:34 PM AEST
Nautical Twilight 4:01 AM AEST 7:04 PM AEST
Astronomical Twilight 3:31 AM AEST 7:34 PM AEST
Moon 5:14 AM AEST (11/4) 6:55 PM AEST (11/4)
Length of Visible Light 14h 03m
Length of Day
13h 14m
New Moon, 0% of the Moon is Illuminated
Nov 4
New Moon
Nov 10
First Quarter
Nov 18
Full
Nov 26
Last Quarter
Dec 3
New

Hourly Weather History & Observations

Time (AEST) Temp. Heat Index Dew Point Humidity Pressure Visibility Wind Dir Wind Speed Gust Speed Precip Events Conditions
12:00 AM 66.2 °F - 60.8 °F 83% 29.89 in 6.2 mi Calm Calm - N/A   Unknown
12:30 AM 66.2 °F - 60.8 °F 83% 29.89 in 6.2 mi SSW 4.6 mph - N/A   Unknown
1:00 AM 62.6 °F - 60.8 °F 94% 29.89 in 6.2 mi SSW 4.6 mph - N/A   Unknown
1:30 AM 64.4 °F - 60.8 °F 88% 29.89 in 6.2 mi SSW 3.5 mph - N/A   Unknown
2:00 AM 64.4 °F - 60.8 °F 88% 29.89 in 6.2 mi Calm Calm - N/A   Unknown
2:30 AM 64.4 °F - 60.8 °F 88% 29.86 in 6.2 mi SSW 5.8 mph - N/A   Unknown
3:00 AM 64.4 °F - 59.0 °F 83% 29.86 in 6.2 mi SSW 5.8 mph - N/A   Unknown
3:30 AM 64.4 °F - 60.8 °F 88% 29.89 in 6.2 mi SSW 8.1 mph - N/A   Unknown
4:00 AM 64.4 °F - 60.8 °F 88% 29.92 in 6.2 mi SSE 6.9 mph - N/A   Unknown
4:30 AM 62.6 °F - 59.0 °F 88% 29.95 in 6.2 mi SSW 2.3 mph - N/A   Unknown
5:00 AM 64.4 °F - 60.8 °F 88% 29.95 in 6.2 mi SSW 5.8 mph - N/A   Unknown
5:30 AM 64.4 °F - 60.8 °F 88% 29.98 in 6.2 mi SSW 4.6 mph - N/A   Unknown
6:00 AM 66.2 °F - 62.6 °F 88% 29.98 in - SSW 4.6 mph - N/A   Clear
6:30 AM 71.6 °F - 64.4 °F 78% 30.01 in - SSW 1.2 mph - N/A   Clear
7:00 AM 73.4 °F - 62.6 °F 69% 30.01 in 6.2 mi SSW 1.2 mph - N/A   Partly Cloudy
7:30 AM 75.2 °F - 60.8 °F 61% 30.01 in 6.2 mi North 3.5 mph - N/A   Scattered Clouds
8:00 AM 77.0 °F - 60.8 °F 57% 30.04 in 6.2 mi ESE 6.9 mph - N/A   Scattered Clouds
8:30 AM 75.2 °F - 59.0 °F 57% 30.04 in 6.2 mi East 10.4 mph - N/A   Mostly Cloudy
9:00 AM 75.2 °F - 60.8 °F 61% 30.04 in 6.2 mi NE 11.5 mph - N/A   Mostly Cloudy
9:30 AM 75.2 °F - 60.8 °F 61% 30.04 in 6.2 mi NE 11.5 mph - N/A   Mostly Cloudy
10:00 AM 77.0 °F - 60.8 °F 57% 30.04 in 5.6 mi NE 11.5 mph - N/A   Mostly Cloudy
10:30 AM 78.8 °F - 60.8 °F 54% 30.04 in 6.2 mi ENE 10.4 mph - N/A   Mostly Cloudy
11:00 AM 78.8 °F - 59.0 °F 51% 30.01 in 6.2 mi NNE 9.2 mph - N/A   Mostly Cloudy
11:30 AM 80.6 °F 80.8 °F 57.2 °F 45% 30.01 in 6.2 mi ENE 12.7 mph - N/A   Scattered Clouds
12:00 PM 82.4 °F 82.0 °F 57.2 °F 42% 30.01 in 6.2 mi ENE 15.0 mph - N/A   Mostly Cloudy
12:30 PM 82.4 °F 82.0 °F 57.2 °F 42% 30.01 in 6.2 mi NE 13.8 mph - N/A   Scattered Clouds
1:00 PM 82.4 °F 82.0 °F 57.2 °F 42% 29.98 in 6.2 mi ENE 16.1 mph - N/A   Scattered Clouds
1:30 PM 80.6 °F 80.5 °F 55.4 °F 42% 29.98 in 6.2 mi East 16.1 mph - N/A   Scattered Clouds
2:00 PM 80.6 °F 80.8 °F 57.2 °F 45% 29.98 in - ENE 16.1 mph - N/A   Clear
2:30 PM 78.8 °F - 55.4 °F 44% 29.98 in - ENE 19.6 mph - N/A   Clear
3:00 PM 80.6 °F 80.5 °F 55.4 °F 42% 29.98 in - ENE 19.6 mph - N/A   Clear
3:30 PM 75.2 °F - 55.4 °F 50% 29.98 in - ENE 21.9 mph - N/A   Clear
4:00 PM 77.0 °F - 55.4 °F 47% 30.01 in 6.2 mi ENE 19.6 mph - N/A   Scattered Clouds
4:30 PM 73.4 °F - 55.4 °F 53% 30.01 in - East 19.6 mph - N/A   Clear
5:00 PM 73.4 °F - 55.4 °F 53% 30.04 in 6.2 mi East 19.6 mph - N/A   Mostly Cloudy
5:30 PM 71.6 °F - 53.6 °F 53% 30.06 in 6.2 mi East 16.1 mph - N/A   Mostly Cloudy
6:00 PM 71.6 °F - 55.4 °F 57% 30.06 in 6.2 mi East 17.3 mph - N/A   Mostly Cloudy
6:30 PM 69.8 °F - 55.4 °F 60% 30.09 in 6.2 mi East 17.3 mph - N/A   Overcast
7:00 PM 69.8 °F - 55.4 °F 60% 30.12 in 6.2 mi East 16.1 mph - N/A   Mostly Cloudy
7:30 PM 69.8 °F - 55.4 °F 60% 30.12 in 6.2 mi East 15.0 mph - N/A   Mostly Cloudy
8:00 PM 69.8 °F - 55.4 °F 60% 30.15 in 6.2 mi East 15.0 mph - N/A   Unknown
8:30 PM 68.0 °F - 55.4 °F 64% 30.15 in 6.2 mi East 13.8 mph - N/A   Unknown
9:00 PM 68.0 °F - 53.6 °F 60% 30.18 in 6.2 mi ESE 10.4 mph - N/A   Unknown
9:30 PM 68.0 °F - 53.6 °F 60% 30.18 in 6.2 mi SE 12.7 mph - N/A   Unknown
10:00 PM 68.0 °F - 51.8 °F 56% 30.18 in 6.2 mi ESE 17.3 mph - N/A   Unknown
10:30 PM 66.2 °F - 53.6 °F 64% 30.21 in 6.2 mi ESE 13.8 mph - N/A   Unknown
11:00 PM 66.2 °F - 53.6 °F 64% 30.21 in 6.2 mi SE 9.2 mph - N/A   Unknown
11:30 PM 66.2 °F - 51.8 °F 60% 30.21 in 6.2 mi ESE 12.7 mph - N/A   Unknown